• en Suisse
  • Liste des pays
  • À 7 jours
  • Température de l'eau
  • Carte satellitaire
  • Carte météo
  • Widgets météo
  • user-avatar
    Se connecter

    Météo par heure à Rivas

    Ce jour, 19 Juillet, Jeudi

    Heure Température Précipitation Vent Pression Humidité
    00:00 +28°C° 0 mm 7 m/s 752 mmHg 81%
    01:00 +28°C° 0,1 mm 7 m/s 752 mmHg 81%
    02:00 +27°C° 0,1 mm 8 m/s 751 mmHg 81%
    03:00 +27°C° 0,1 mm 8 m/s 751 mmHg 81%
    04:00 +27°C° 0,1 mm 8 m/s 751 mmHg 81%
    05:00 +27°C° 0,1 mm 8 m/s 751 mmHg 81%
    06:00 +27°C° 0,1 mm 8 m/s 752 mmHg 81%
    07:00 +28°C° 0,1 mm 9 m/s 752 mmHg 77%
    08:00 +29°C° 0,1 mm 9 m/s 752 mmHg 73%
    09:00 +31°C° 0,1 mm 9 m/s 752 mmHg 69%
    10:00 +32°C° 0,1 mm 9 m/s 752 mmHg 66%
    11:00 +33°C° 0,1 mm 9 m/s 752 mmHg 63%
    12:00 +34°C° 0,1 mm 8 m/s 752 mmHg 60%
    13:00 +34°C° 0,1 mm 8 m/s 751 mmHg 59%
    14:00 +34°C° 0,1 mm 8 m/s 751 mmHg 58%
    15:00 +34°C° 0,1 mm 8 m/s 750 mmHg 57%
    16:00 +33°C° 0,1 mm 7 m/s 750 mmHg 62%
    17:00 +32°C° 0,1 mm 7 m/s 750 mmHg 68%
    18:00 +30°C° 0,1 mm 6 m/s 750 mmHg 73%
    19:00 +29°C° 0 mm 7 m/s 751 mmHg 75%
    20:00 +29°C° 0 mm 7 m/s 751 mmHg 77%
    21:00 +28°C° 0 mm 7 m/s 752 mmHg 79%
    22:00 +28°C° 0 mm 7 m/s 752 mmHg 79%
    23:00 +28°C° 0 mm 7 m/s 752 mmHg 79%

    Demain, 20 Juillet, Vendredi

    Heure Température Précipitation Vent Pression Humidité
    00:00 +27°C° 0 mm 8 m/s 752 mmHg 80%
    01:00 +27°C° 0,1 mm 7 m/s 752 mmHg 80%
    02:00 +27°C° 0,1 mm 7 m/s 751 mmHg 81%
    03:00 +27°C° 0,1 mm 7 m/s 751 mmHg 81%
    04:00 +27°C° 0,1 mm 7 m/s 751 mmHg 81%
    05:00 +27°C° 0,1 mm 8 m/s 751 mmHg 81%
    06:00 +27°C° 0,1 mm 8 m/s 752 mmHg 81%
    07:00 +28°C° 0 mm 8 m/s 752 mmHg 77%
    08:00 +29°C° 0 mm 8 m/s 752 mmHg 72%
    09:00 +31°C° 0 mm 9 m/s 752 mmHg 68%
    10:00 +32°C° 0,1 mm 8 m/s 752 mmHg 65%
    11:00 +33°C° 0,1 mm 8 m/s 752 mmHg 62%
    12:00 +34°C° 0,1 mm 8 m/s 752 mmHg 58%
    13:00 +34°C° 0,1 mm 8 m/s 751 mmHg 59%
    14:00 +34°C° 0,1 mm 8 m/s 751 mmHg 60%
    15:00 +33°C° 0,1 mm 8 m/s 750 mmHg 61%
    16:00 +32°C° 0,3 mm 7 m/s 750 mmHg 65%
    17:00 +30°C° 0,3 mm 7 m/s 750 mmHg 70%
    18:00 +29°C° 0,3 mm 7 m/s 750 mmHg 74%
    19:00 +29°C° 0,4 mm 7 m/s 751 mmHg 76%
    20:00 +29°C° 0,4 mm 7 m/s 752 mmHg 77%
    21:00 +28°C° 0,4 mm 7 m/s 752 mmHg 79%
    22:00 +28°C° 0,2 mm 7 m/s 752 mmHg 80%
    23:00 +28°C° 0,2 mm 7 m/s 752 mmHg 81%

    Après-demain, 21 Juillet, Samedi

    Heure Température Précipitation Vent Pression Humidité
    00:00 +28°C° 0,2 mm 7 m/s 752 mmHg 82%
    01:00 +27°C° 0,2 mm 7 m/s 752 mmHg 83%
    02:00 +27°C° 0,2 mm 7 m/s 751 mmHg 83%
    03:00 +27°C° 0,2 mm 6 m/s 751 mmHg 84%
    04:00 +27°C° 0,2 mm 6 m/s 751 mmHg 83%
    05:00 +27°C° 0,2 mm 6 m/s 751 mmHg 83%
    06:00 +27°C° 0,2 mm 6 m/s 751 mmHg 83%
    07:00 +28°C° 0,4 mm 7 m/s 751 mmHg 80%
    08:00 +29°C° 0,4 mm 8 m/s 752 mmHg 76%
    09:00 +31°C° 0,4 mm 8 m/s 752 mmHg 73%
    10:00 +32°C° 0,4 mm 8 m/s 752 mmHg 71%
    11:00 +32°C° 0,4 mm 8 m/s 751 mmHg 69%
    12:00 +33°C° 0,4 mm 8 m/s 751 mmHg 67%
    13:00 +32°C° 0,2 mm 8 m/s 751 mmHg 69%
    14:00 +32°C° 0,2 mm 8 m/s 750 mmHg 70%
    15:00 +32°C° 0,2 mm 7 m/s 750 mmHg 72%
    16:00 +31°C° 0,5 mm 8 m/s 750 mmHg 74%
    17:00 +29°C° 0,5 mm 8 m/s 750 mmHg 77%
    18:00 +28°C° 0,5 mm 8 m/s 750 mmHg 80%
    19:00 +28°C° 0,2 mm 8 m/s 751 mmHg 81%
    20:00 +28°C° 0,2 mm 7 m/s 751 mmHg 81%
    21:00 +28°C° 0,2 mm 7 m/s 752 mmHg 82%
    22:00 +28°C° 0,1 mm 7 m/s 752 mmHg 82%
    23:00 +27°C° 0,1 mm 7 m/s 752 mmHg 83%

    22 Juillet, Dimanche

    Heure Température Précipitation Vent Pression Humidité
    00:00 +27°C° 0,1 mm 6 m/s 752 mmHg 83%
    01:00 +27°C° 0,5 mm 6 m/s 752 mmHg 83%
    02:00 +27°C° 0,5 mm 6 m/s 751 mmHg 84%
    03:00 +27°C° 0,5 mm 6 m/s 751 mmHg 84%
    04:00 +27°C° 0,6 mm 6 m/s 751 mmHg 84%
    05:00 +27°C° 0,6 mm 6 m/s 751 mmHg 84%
    06:00 +27°C° 0,6 mm 6 m/s 751 mmHg 84%
    07:00 +28°C° 0,6 mm 7 m/s 752 mmHg 83%
    08:00 +28°C° 0,6 mm 8 m/s 752 mmHg 82%
    09:00 +28°C° 0,6 mm 8 m/s 753 mmHg 81%
    10:00 +28°C° 0,6 mm 8 m/s 752 mmHg 82%
    11:00 +28°C° 0,6 mm 8 m/s 752 mmHg 83%
    12:00 +28°C° 0,6 mm 8 m/s 752 mmHg 83%
    13:00 +28°C° 0,5 mm 8 m/s 751 mmHg 84%
    14:00 +28°C° 0,5 mm 8 m/s 751 mmHg 85%
    15:00 +28°C° 0,5 mm 8 m/s 750 mmHg 86%
    16:00 +27°C° 0,5 mm 8 m/s 750 mmHg 87%
    17:00 +27°C° 0,5 mm 8 m/s 751 mmHg 88%
    18:00 +27°C° 0,5 mm 8 m/s 751 mmHg 89%
    19:00 +27°C° 0,5 mm 7 m/s 751 mmHg 89%
    20:00 +27°C° 0,5 mm 7 m/s 752 mmHg 89%
    21:00 +27°C° 0,5 mm 7 m/s 752 mmHg 89%
    22:00 +27°C° 0,5 mm 6 m/s 752 mmHg 89%
    23:00 +26°C° 0,5 mm 6 m/s 752 mmHg 89%

    23 Juillet, Lundi

    Heure Température Précipitation Vent Pression Humidité
    00:00 +26°C° 0,5 mm 6 m/s 752 mmHg 89%
    01:00 +26°C° 1,2 mm 6 m/s 752 mmHg 89%
    02:00 +26°C° 1,2 mm 6 m/s 751 mmHg 90%
    03:00 +26°C° 1,2 mm 6 m/s 751 mmHg 90%
    04:00 +26°C° 0,5 mm 6 m/s 751 mmHg 90%
    05:00 +26°C° 0,5 mm 6 m/s 752 mmHg 89%
    06:00 +26°C° 0,5 mm 6 m/s 752 mmHg 89%
    07:00 +27°C° 0,2 mm 6 m/s 752 mmHg 87%
    08:00 +27°C° 0,2 mm 7 m/s 753 mmHg 85%
    09:00 +28°C° 0,2 mm 7 m/s 753 mmHg 83%
    10:00 +29°C° 0,1 mm 7 m/s 753 mmHg 80%
    11:00 +31°C° 0,1 mm 8 m/s 752 mmHg 76%
    12:00 +31°C° 0,1 mm 8 m/s 752 mmHg 72%
    13:00 +32°C° 0,1 mm 8 m/s 751 mmHg 71%
    14:00 +32°C° 0,1 mm 7 m/s 751 mmHg 69%
    15:00 +32°C° 0,1 mm 7 m/s 750 mmHg 68%
    16:00 +30°C° 0,2 mm 7 m/s 751 mmHg 73%
    17:00 +29°C° 0,2 mm 7 m/s 751 mmHg 77%
    18:00 +28°C° 0,2 mm 6 m/s 752 mmHg 82%
    19:00 +28°C° 0,6 mm 6 m/s 753 mmHg 84%
    20:00 +27°C° 0,6 mm 6 m/s 753 mmHg 85%
    21:00 +27°C° 0,6 mm 6 m/s 754 mmHg 87%
    22:00 +27°C° 0,9 mm 6 m/s 754 mmHg 89%
    23:00 +26°C° 0,9 mm 6 m/s 753 mmHg 90%

    24 Juillet, Mardi

    Heure Température Précipitation Vent Pression Humidité
    00:00 +26°C° 0,9 mm 6 m/s 753 mmHg 91%
    01:00 +26°C° 1 mm 6 m/s 753 mmHg 91%
    02:00 +26°C° 1 mm 6 m/s 753 mmHg 91%
    03:00 +26°C° 1 mm 6 m/s 752 mmHg 91%
    04:00 +26°C° 0,3 mm 6 m/s 753 mmHg 90%
    05:00 +24°C° 0,3 mm 6 m/s 753 mmHg 90%
    06:00 +24°C° 0,3 mm 6 m/s 753 mmHg 89%
    07:00 +26°C° 0 mm 6 m/s 753 mmHg 84%
    08:00 +27°C° 0 mm 6 m/s 754 mmHg 79%
    09:00 +28°C° 0 mm 7 m/s 754 mmHg 73%
    10:00 +29°C° 0 mm 7 m/s 754 mmHg 70%
    11:00 +30°C° 0 mm 7 m/s 753 mmHg 67%
    12:00 +32°C° 0 mm 7 m/s 753 mmHg 63%
    13:00 +32°C° 0 mm 7 m/s 753 mmHg 63%
    14:00 +33°C° 0 mm 7 m/s 752 mmHg 62%
    15:00 +33°C° 0 mm 7 m/s 752 mmHg 62%
    16:00 +32°C° 0,2 mm 6 m/s 752 mmHg 66%
    17:00 +30°C° 0,2 mm 6 m/s 752 mmHg 71%
    18:00 +29°C° 0,2 mm 6 m/s 752 mmHg 75%
    19:00 +29°C° 0,1 mm 6 m/s 753 mmHg 77%
    20:00 +28°C° 0,1 mm 6 m/s 753 mmHg 79%
    21:00 +28°C° 0,1 mm 6 m/s 754 mmHg 81%
    22:00 +27°C° 0 mm 5 m/s 754 mmHg 82%
    23:00 +27°C° 0 mm 5 m/s 754 mmHg 84%
    Voir plus